Regional Weather Roundup
Issued by NWS

Home | Current Version | Previous Version | Text Only | Print | Product List | Glossary Off
Versions: 1 2 3 4 5 6 7 8 9 10 11 12 13 14 15 16 17 18 19 20 21 22 23 24 25 26 27 28 29 30 31 32 33 34 35 36 37 38 39 40 41 42 43 44 45 46 47 48 49 50

000
ASUS45 KCYS 240810
RWRWY

WYOMING REGIONAL WEATHER ROUNDUP
NATIONAL WEATHER SERVICE CHEYENNE WY
100 AM MST TUE JAN 24 2017

NOTE:  "FAIR" INDICATES FEW OR NO CLOUDS BELOW 12,000 FEET
WITH NO SIGNIFICANT WEATHER AND/OR OBSTRUCTIONS TO VISIBILITY.

WYZ001-240900-
YELLOWSTONE NATIONAL PARK

CITY           SKY/WX    TMP DP  RH WIND       PRES   REMARKS
LK YELLOWSTONE   N/A     18  12  77 CALM      29.51S
W YELLOWSTONE  NOT AVBL

$$
WYZ002>013-054>058-071-098>099-240900-
NORTHERN WYOMING

CITY           SKY/WX    TMP DP  RH WIND       PRES   REMARKS
JACKSON        CLOUDY    23  23 100 W5        29.48S VSB 1   WCI  17
CODY           LGT SNOW  19  16  88 NW16      29.67S FOG     WCI   4
GREYBULL       LGT SNOW  21  19  92 CALM      29.66S FOG
WORLAND        LGT SNOW  22  21  96 NW10      29.65S VSB 3/4 WCI  11
SHERIDAN       LGT SNOW  20  18  92 W6        29.74F FOG     WCI  12
BUFFALO        LGT SNOW  19  14  81 N17       29.66F WCI   4
GILLETTE       FOG       16  15  96 N13       29.68F VSB 3/4 WCI   2
HULETT         FOG       18  14  86 MISG      29.72S VSB 1/2
NEWCASTLE      CLOUDY    21  19  93 N8        29.66F WCI  12

$$
WYZ014>020-022>026-101>103-240900-
CENTRAL WYOMING

CITY           SKY/WX    TMP DP  RH WIND       PRES   REMARKS
BIG PINEY      LGT SNOW  20  19  96 N7        29.46R VSB 1   WCI  11
PINEDALE       FLURRIES  21  19  93 SE5       29.47S WCI  15
DUBOIS         NOT AVBL
LANDER         LGT SNOW  21  19  92 NW7       29.56R VSB 3/4 WCI  12
RIVERTON       LGT SNOW  20  18  92 N17       29.56S VSB 3/4 WCI   5
CASPER         FLURRIES  16  12  84 NE18      29.57S WCI   0
DOUGLAS        CLOUDY    22  19  89 NW9       29.59R WCI  12

$$
WYZ021-027>030-104>119-240900-
SOUTHERN WYOMING

CITY           SKY/WX    TMP DP  RH WIND       PRES   REMARKS
EVANSTON       CLOUDY    19  16  88 SW13      29.54S WCI   6
ROCK SPRINGS   LGT SNOW  21  17  84 W17       29.51S FOG     WCI   7
RAWLINS        MOCLDY    24  18  77 SW8       29.49R WCI  15
LARAMIE        FAIR      19  12  74 S6        29.49S WCI  11
CHEYENNE       CLOUDY    30  29  96 W3        29.51F
TORRINGTON     CLOUDY    24  21  88 NE13      29.57S WCI  12

$$



USA.gov is the U.S. government's official web portal to all federal, state and local government web resources and services.